Flag for Germany

Past Weather in Landau in der Pfalz, Rhineland-Palatinate, Germany — Yesterday and Last 2 Weeks

Now
46 °F

Clear.


Feels Like: 46 °F
Forecast: 74 / 53 °F
Wind: 1 mph from North

Location: Karlsruhe - Baden Wurttemberg

Current Time: Jul 7, 2020 at 6:02:43 am

Latest Report: Jul 7, 2020 at 5:20 am


Visibility: 10 mi

Pressure: 30.18 "Hg

Humidity: 93%

Dew Point: 45 °F

Location of Landau in der PfalzLocation

Past Weather in Landau in der Pfalz — Graph

°F

Landau in der Pfalz Temperature Yesterday

Maximum temperature yesterday: 75 °F (at 1:50 am)
Minimum temperature yesterday: 54 °F (at 11:50 pm)
Average temperature yesterday: 66 °F

High & Low Weather Summary for the Past Weeks

 TemperatureHumidityPressure
High86 °F (Jul 1, 3:50 pm)100% (Jun 26, 11:50 pm)30.27 "Hg (Jun 26, 11:50 pm)
Low46 °F (Jul 7, 4:20 am)27% (Jun 24, 3:50 pm)29.77 "Hg (Jul 1, 4:20 pm)
Average70 °F64%30.02 "Hg
* Reported Jun 22 4:20 am — Jul 7 4:50 am, Landau in der Pfalz. Weather by CustomWeather, © 2020

Note: Actual official high and low records may vary slightly from our data, if they occured in-between our weather recording intervals... More about our weather records

Landau in der Pfalz Weather History for the Previous 24 Hours

Scroll right to see more
 ConditionsComfort  
Time TempWeatherWind HumidityBarometerVisibility
4:50 am
Tue, Jul 7
46 °FClear.2 mph93%30.18 "Hg10 mi
4:20 am46 °FCool.No wind93%30.18 "HgN/A
3:20 am48 °FCool.3 mph94%30.18 "HgN/A
2:50 am52 °FCool.3 mph82%30.18 "HgN/A
1:50 am48 °FCool.3 mph94%30.18 "HgN/A
1:20 am52 °FCool.2 mph88%30.18 "HgN/A
12:50 am52 °FCool.3 mph88%30.18 "HgN/A
12:20 am50 °FCool.5 mph88%30.18 "HgN/A
11:50 pm
Mon, Jul 6
54 °FCool.2 mph77%30.18 "HgN/A
11:20 pm55 °FPassing clouds.3 mph72%30.18 "HgN/A
10:50 pm57 °FPassing clouds.1 mph67%30.18 "HgN/A
10:20 pm59 °FCool.2 mph63%30.15 "Hg5 mi
9:50 pm64 °FClear.2 mph52%30.15 "Hg10 mi
9:20 pm64 °FSunny.2 mph52%30.15 "Hg10 mi
8:50 pm64 °FSunny.2 mph49%30.12 "Hg10 mi
8:20 pm68 °FPassing clouds.5 mph43%30.12 "HgN/A
7:50 pm70 °FPassing clouds.6 mph40%30.12 "HgN/A
7:20 pm68 °FPassing clouds.5 mph43%30.12 "HgN/A
6:50 pm70 °FPassing clouds.9 mph38%30.12 "HgN/A
6:20 pm70 °FPassing clouds.10 mph38%30.12 "HgN/A
5:50 pm70 °FPassing clouds.8 mph38%30.09 "HgN/A
5:20 pm72 °FPassing clouds.8 mph36%30.09 "HgN/A
4:50 pm72 °FPassing clouds.8 mph36%30.09 "HgN/A
4:20 pm70 °FPassing clouds.8 mph38%30.09 "HgN/A
3:50 pm68 °FPassing clouds.8 mph40%30.09 "HgN/A
2:50 pm68 °FPassing clouds.12 mph43%30.09 "HgN/A
2:20 pm70 °FScattered clouds.9 mph43%30.09 "HgN/A
1:50 pm68 °FPassing clouds.12 mph43%30.07 "HgN/A
1:20 pm68 °FPassing clouds.10 mph43%30.07 "HgN/A
12:50 pm68 °FPassing clouds.10 mph46%30.07 "HgN/A
12:20 pm66 °FPassing clouds.7 mph46%30.07 "HgN/A
11:50 am66 °FPassing clouds.8 mph46%30.07 "HgN/A
11:20 am64 °FPassing clouds.7 mph52%30.07 "HgN/A
10:50 am64 °FScattered clouds.7 mph52%30.07 "HgN/A
10:20 am64 °FPassing clouds.10 mph56%30.07 "HgN/A
9:50 am63 °FPassing clouds.9 mph59%30.07 "HgN/A
9:20 am63 °FPassing clouds.8 mph59%30.07 "HgN/A
8:50 am61 °FPassing clouds.10 mph63%30.07 "HgN/A
8:20 am61 °FPassing clouds.9 mph63%30.04 "HgN/A
7:50 am61 °FPassing clouds.8 mph63%30.04 "HgN/A
7:20 am61 °FPartly sunny.10 mph68%30.04 "HgN/A
6:50 am63 °FPassing clouds.9 mph64%30.01 "HgN/A
6:20 am63 °FPartly sunny.10 mph68%30.01 "HgN/A
Weather by CustomWeather, © 2020

See weather overview